Regional Weather Roundup
Issued by NWS

Home | Current Version | Previous Version | Text Only | Print | Product List | Glossary Off
Versions: 1 2 3 4 5 6 7 8 9 10 11 12 13 14 15 16 17 18 19 20 21 22 23 24 25 26 27 28 29 30 31 32 33 34 35 36 37 38 39 40 41 42 43 44 45 46 47 48 49 50

000
ASUS43 KIND 210709
RWRIN

WEATHER ROUNDUP FOR INDIANA
NATIONAL WEATHER SERVICE INDIANAPOLIS IN
300 AM EDT MON APR 21 2014

NOTE: "FAIR" INDICATES FEW OR NO CLOUDS BELOW 12,000 FEET WITH NO
SIGNIFICANT WEATHER AND/OR OBSTRUCTIONS TO VISIBILITY.

* - STATION DOES NOT REPORT WEATHER SUCH AS PRECIPITATION OR FOG.

+ - STATION NOT QUALITY CONTROLLED BY THE NATIONAL WEATHER SERVICE.
    USE DATA WITH CAUTION...ESPECIALLY DEWPOINT AND RELATIVE
    HUMIDITY OBSERVATIONS.

INZ001>003-010>013-019-020-210800-
NORTHWEST INDIANA

CITY           SKY/WX    TMP DP  RH WIND       PRES   REMARKS
GARY /AIRPORT/ CLOUDY    64  39  40 S3        30.03F
LA PORTE +     MOCLDY    54  32  42 CALM      30.05F
MICHIGAN CITY+ CLOUDY    61  30  31 S5        30.04F
MONTICELLO +   MOCLDY    51  41  68 CALM      30.05S
RENSSELAER +   CLOUDY    54  41  62 S3        30.05F
VALPARAISO     CLOUDY    56  34  43 S3        30.05F

$$

LMZ046-743>745-210800-
SOUTHERN LAKE MICHIGAN

STATION/POSITION TIME  TEMP WIND        PRES
                       AIR  DIR/SP/G
                 (UTC) (F)  (DEG/KT/KT) (MB)
MICHIGAN CITY    0700   63  160/ 12/ 17   N/A

$$

INZ004-005-014>016-021>024-210800-
NORTH CENTRAL INDIANA

CITY           SKY/WX    TMP DP  RH WIND       PRES   REMARKS
GOSHEN         PTCLDY    48  39  71 CALM      30.05F
LOGANSPORT +   MOCLDY    52  36  54 SE5       30.06F
PERU/GRISSOM   CLOUDY    54  38  55 S3        30.05F
ROCHESTER +    MOCLDY    55  39  54 CALM      30.06F
SOUTH BEND     MOCLDY    53  32  44 SW6       30.06F
WARSAW +       PTCLDY    45  37  76 CALM      30.06S

$$

INZ006>009-017-018-025>027-210800-
NORTHEAST INDIANA

CITY           SKY/WX    TMP DP  RH WIND       PRES   REMARKS
ANGOLA *+      CLEAR     46  43  87 CALM      30.06F
AUBURN +       CLEAR     46  36  66 CALM      30.07S
FORT WAYNE     MOCLDY    47  38  71 CALM      30.07F

$$

INZ028-029-035-036-043>045-051>053-210800-
WEST CENTRAL INDIANA

CITY           SKY/WX    TMP DP  RH WIND       PRES   REMARKS
GREENCASTLE +  PTCLDY    52  37  58 CALM      30.08S
LAFAYETTE      MOCLDY    54  40  59 CALM      30.05F
TERRE HAUTE    PTCLDY    50  45  83 CALM      30.07F

$$

INZ030>032-037>040-046>048-054>057-064-065-210800-
CENTRAL INDIANA

CITY           SKY/WX    TMP DP  RH WIND       PRES   REMARKS
CP ATTERBURY + PTCLDY    45  41  87 CALM      30.08S
GREENWOOD *+   CLEAR     52  41  66 CALM      30.07F
INDIANAPOLIS   PTCLDY    54  38  54 CALM      30.06F
-EAGLE CREEK   CLEAR     52  44  74 CALM      30.06F
KOKOMO *+      MOCLDY    50  41  71 CALM      30.06F
MARION +       PTCLDY    48  39  72 S3        30.07F
MT COMFORT *+  PTCLDY    48  43  81 CALM      30.07F
SHELBYVILLE    PTCLDY    49  42  77 E5        30.07F
ZIONSVILLE +   PTCLDY    48  38  67 CALM      30.07F

$$

INZ033-034-041-042-049-050-058-059-210800-
EAST CENTRAL INDIANA

CITY           SKY/WX    TMP DP  RH WIND       PRES   REMARKS
MUNCIE         PTCLDY    50  40  68 CALM      30.07F

$$

INZ060-061-067>069-081>083-085>088-210800-
SOUTHWEST INDIANA

CITY           SKY/WX    TMP DP  RH WIND       PRES   REMARKS
EVANSVILLE     CLOUDY    57  49  74 CALM      30.08F
HUNTINGBURG *+ PTCLDY    54  43  66 CALM      30.09S
WASHINGTON +   PTCLDY    52  49  90 CALM      30.06F

$$

INZ062-063-066-070>080-084-089>092-210800-
SOUTH CENTRAL AND SOUTHEAST INDIANA

CITY           SKY/WX    TMP DP  RH WIND       PRES   REMARKS
BLOOMINGTON    PTCLDY    49  39  68 CALM      30.08S
SEYMOUR +      PTCLDY    43  32  65 CALM      30.07

$$




USA.gov is the U.S. government's official web portal to all federal, state and local government web resources and services.